EN

Hourly Weather Al Marj

Today, 28 January, Thursday

Time Temperature Precipitation Wind Pressure Humidity
00:00 +6°C° 0 mm 4 mps 714 mmHg 73%
01:00 +7°C° 0 mm 4 mps 714 mmHg 74%
02:00 +7°C° 0.1 mm 4 mps 713 mmHg 79%
03:00 +6°C° 0.1 mm 4 mps 713 mmHg 85%
04:00 +6°C° 0.1 mm 4 mps 712 mmHg 90%
05:00 +6°C° 0.7 mm 5 mps 712 mmHg 92%
06:00 +6°C° 0.7 mm 5 mps 712 mmHg 94%
07:00 +7°C° 0 mm 5 mps 712 mmHg 95%
08:00 +8°C° 1.7 mm 7 mps 712 mmHg 89%
09:00 +8°C° 1.7 mm 9 mps 712 mmHg 83%
10:00 +9°C° 1.7 mm 11 mps 712 mmHg 77%
11:00 +8°C° 1.3 mm 12 mps 712 mmHg 80%
12:00 +8°C° 1.3 mm 12 mps 712 mmHg 83%
13:00 +8°C° 1.3 mm 13 mps 711 mmHg 86%
14:00 +8°C° 1.2 mm 11 mps 712 mmHg 84%
15:00 +7°C° 1.2 mm 9 mps 712 mmHg 82%
16:00 +8°C° 1.2 mm 7 mps 712 mmHg 80%
17:00 +6°C° 0.1 mm 7 mps 713 mmHg 82%
18:00 +7°C° 0.1 mm 6 mps 713 mmHg 83%
19:00 +6°C° 0.1 mm 5 mps 714 mmHg 84%
20:00 +6°C° 0 mm 5 mps 714 mmHg 82%
21:00 +6°C° 0 mm 4 mps 715 mmHg 80%
22:00 +7°C° 0 mm 3 mps 715 mmHg 78%
23:00 +5°C° 0 mm 3 mps 715 mmHg 78%

Tomorrow, 29 January, Friday

Time Temperature Precipitation Wind Pressure Humidity
00:00 +5°C° 0 mm 3 mps 715 mmHg 78%
01:00 +5°C° 0 mm 3 mps 715 mmHg 79%
02:00 +5°C° 0 mm 3 mps 715 mmHg 79%
03:00 +5°C° 0 mm 3 mps 715 mmHg 79%
04:00 +5°C° 0 mm 3 mps 715 mmHg 80%
05:00 +5°C° 0 mm 3 mps 715 mmHg 80%
06:00 +5°C° 0 mm 3 mps 715 mmHg 81%
07:00 +5°C° 0 mm 4 mps 715 mmHg 82%
08:00 +7°C° 0 mm 5 mps 716 mmHg 80%
09:00 +8°C° 0 mm 5 mps 716 mmHg 77%
10:00 +10°C° 0 mm 6 mps 716 mmHg 75%
11:00 +10°C° 0 mm 7 mps 716 mmHg 79%
12:00 +10°C° 0 mm 8 mps 715 mmHg 82%
13:00 +11°C° 0 mm 8 mps 715 mmHg 86%
14:00 +11°C° 0.2 mm 8 mps 715 mmHg 86%
15:00 +11°C° 0.2 mm 9 mps 714 mmHg 86%
16:00 +12°C° 0.2 mm 9 mps 714 mmHg 86%
17:00 +11°C° 0.1 mm 8 mps 714 mmHg 89%
18:00 +11°C° 0.1 mm 8 mps 714 mmHg 92%
19:00 +10°C° 0.1 mm 7 mps 714 mmHg 95%
20:00 +10°C° 0 mm 7 mps 714 mmHg 95%
21:00 +10°C° 0 mm 7 mps 714 mmHg 95%
22:00 +10°C° 0 mm 6 mps 714 mmHg 95%
23:00 +10°C° 0 mm 6 mps 714 mmHg 94%

Day after tomorrow, 30 January, Saturday

Time Temperature Precipitation Wind Pressure Humidity
00:00 +10°C° 0 mm 7 mps 713 mmHg 94%
01:00 +10°C° 0 mm 7 mps 713 mmHg 93%
02:00 +10°C° 0 mm 7 mps 713 mmHg 92%
03:00 +10°C° 0 mm 7 mps 712 mmHg 91%
04:00 +10°C° 0 mm 7 mps 712 mmHg 90%
05:00 +10°C° 0 mm 7 mps 712 mmHg 90%
06:00 +10°C° 0 mm 7 mps 712 mmHg 89%
07:00 +10°C° 0 mm 7 mps 712 mmHg 89%
08:00 +12°C° 0 mm 8 mps 712 mmHg 82%
09:00 +13°C° 0 mm 9 mps 712 mmHg 74%
10:00 +16°C° 0 mm 10 mps 713 mmHg 67%
11:00 +16°C° 0 mm 10 mps 712 mmHg 64%
12:00 +17°C° 0 mm 11 mps 712 mmHg 62%
13:00 +17°C° 0 mm 11 mps 712 mmHg 60%
14:00 +17°C° 0 mm 10 mps 712 mmHg 64%
15:00 +16°C° 0 mm 9 mps 712 mmHg 69%
16:00 +15°C° 0 mm 8 mps 711 mmHg 74%
17:00 +14°C° 0 mm 7 mps 712 mmHg 81%
18:00 +13°C° 0 mm 6 mps 712 mmHg 87%
19:00 +12°C° 0 mm 5 mps 712 mmHg 94%
20:00 +12°C° 0 mm 5 mps 712 mmHg 95%
21:00 +12°C° 0 mm 5 mps 712 mmHg 95%
22:00 +12°C° 0 mm 4 mps 712 mmHg 96%
23:00 +11°C° 0 mm 4 mps 712 mmHg 95%

31 January, Sunday

Time Temperature Precipitation Wind Pressure Humidity
00:00 +11°C° 0 mm 3 mps 711 mmHg 94%
01:00 +11°C° 0 mm 3 mps 711 mmHg 93%
02:00 +11°C° 0 mm 3 mps 710 mmHg 90%
03:00 +11°C° 0 mm 4 mps 710 mmHg 87%
04:00 +11°C° 0 mm 4 mps 709 mmHg 83%
05:00 +11°C° 0 mm 4 mps 709 mmHg 82%
06:00 +11°C° 0 mm 4 mps 709 mmHg 81%
07:00 +11°C° 0 mm 4 mps 709 mmHg 79%
08:00 +12°C° 0 mm 5 mps 710 mmHg 68%
09:00 +14°C° 0 mm 7 mps 710 mmHg 57%
10:00 +16°C° 0 mm 8 mps 710 mmHg 46%
11:00 +17°C° 0 mm 8 mps 710 mmHg 42%
12:00 +18°C° 0 mm 9 mps 709 mmHg 38%
13:00 +19°C° 0 mm 10 mps 709 mmHg 35%
14:00 +18°C° 0 mm 9 mps 709 mmHg 37%
15:00 +18°C° 0 mm 8 mps 708 mmHg 39%
16:00 +17°C° 0 mm 7 mps 708 mmHg 42%
17:00 +16°C° 0 mm 6 mps 708 mmHg 44%
18:00 +15°C° 0 mm 6 mps 708 mmHg 46%
19:00 +14°C° 0 mm 5 mps 707 mmHg 48%
20:00 +14°C° 0 mm 5 mps 708 mmHg 49%
21:00 +14°C° 0 mm 5 mps 708 mmHg 49%
22:00 +13°C° 0 mm 4 mps 708 mmHg 49%
23:00 +13°C° 0 mm 4 mps 708 mmHg 50%

1 February, Monday

Time Temperature Precipitation Wind Pressure Humidity
00:00 +13°C° 0 mm 3 mps 707 mmHg 52%
01:00 +12°C° 0 mm 3 mps 707 mmHg 54%
02:00 +12°C° 0 mm 3 mps 707 mmHg 63%
03:00 +11°C° 0 mm 4 mps 707 mmHg 73%
04:00 +11°C° 0 mm 4 mps 707 mmHg 83%
05:00 +11°C° 0 mm 4 mps 707 mmHg 87%
06:00 +9°C° 0 mm 5 mps 708 mmHg 91%
07:00 +9°C° 0 mm 5 mps 708 mmHg 95%
08:00 +10°C° 0 mm 5 mps 708 mmHg 86%
09:00 +12°C° 0 mm 5 mps 709 mmHg 78%
10:00 +13°C° 0 mm 6 mps 709 mmHg 69%
11:00 +14°C° 0 mm 6 mps 709 mmHg 64%
12:00 +14°C° 0 mm 6 mps 709 mmHg 59%
13:00 +14°C° 0 mm 6 mps 709 mmHg 54%
14:00 +14°C° 0 mm 6 mps 709 mmHg 57%
15:00 +14°C° 0 mm 5 mps 709 mmHg 60%
16:00 +13°C° 0 mm 5 mps 709 mmHg 62%
17:00 +12°C° 0 mm 4 mps 709 mmHg 68%
18:00 +12°C° 0 mm 4 mps 709 mmHg 73%
19:00 +11°C° 0 mm 3 mps 710 mmHg 78%
20:00 +11°C° 0.1 mm 3 mps 710 mmHg 80%
21:00 +10°C° 0.1 mm 3 mps 710 mmHg 82%
22:00 +10°C° 0.1 mm 3 mps 710 mmHg 85%
23:00 +10°C° 0.1 mm 2 mps 710 mmHg 85%

2 February, Tuesday

Time Temperature Precipitation Wind Pressure Humidity
00:00 +10°C° 0.1 mm 2 mps 709 mmHg 86%
01:00 +9°C° 0.1 mm 2 mps 709 mmHg 86%
02:00 +9°C° 0 mm 2 mps 709 mmHg 87%
03:00 +9°C° 0 mm 3 mps 708 mmHg 89%
04:00 +8°C° 0 mm 3 mps 708 mmHg 90%
05:00 +8°C° 0 mm 3 mps 708 mmHg 88%
06:00 +7°C° 0 mm 4 mps 708 mmHg 86%
07:00 +8°C° 0 mm 4 mps 708 mmHg 84%
08:00 +9°C° 0.1 mm 5 mps 709 mmHg 78%
09:00 +10°C° 0.1 mm 6 mps 709 mmHg 72%
10:00 +12°C° 0.1 mm 7 mps 710 mmHg 67%
11:00 +11°C° 0.8 mm 7 mps 709 mmHg 68%
12:00 +11°C° 0.8 mm 7 mps 709 mmHg 69%
13:00 +11°C° 0.8 mm 7 mps 708 mmHg 70%
14:00 +11°C° 0.4 mm 7 mps 708 mmHg 71%
15:00 +11°C° 0.4 mm 7 mps 708 mmHg 72%
16:00 +11°C° 0.4 mm 7 mps 708 mmHg 73%
17:00 +10°C° 0.2 mm 6 mps 708 mmHg 78%
18:00 +10°C° 0.2 mm 5 mps 708 mmHg 83%
19:00 +9°C° 0.2 mm 5 mps 708 mmHg 88%
20:00 +10°C° 0.1 mm 4 mps 708 mmHg 89%
21:00 +10°C° 0.1 mm 4 mps 708 mmHg 90%
22:00 +10°C° 0.1 mm 4 mps 709 mmHg 90%
23:00 +8°C° 0.1 mm 4 mps 709 mmHg 91%
Show more